TimePST,TemperatureF,Dew PointF,Humidity,Sea Level PressureIn,VisibilityMPH,Wind Direction,Wind SpeedMPH,Gust SpeedMPH,PrecipitationIn,Events,Conditions,WindDirDegrees,DateUTC
12:42 AM,44.6,44.6,100,30.20,9.0,NW,5.8,-,N/A,,Mostly Cloudy,320,2012-11-15 08:42:00
12:53 AM,44.1,44.1,100,30.42,5.0,Calm,Calm,-,N/A,,Mostly Cloudy,0,2012-11-15 08:53:00
1:01 AM,42.8,42.8,100,30.20,1.5,WNW,3.5,-,N/A,,Overcast,300,2012-11-15 09:01:00
1:29 AM,42.8,42.8,100,30.19,0.5,WNW,5.8,-,N/A,Fog,Fog,290,2012-11-15 09:29:00
1:53 AM,42.1,41.0,96,30.40,0.5,WNW,5.8,-,N/A,,Overcast,290,2012-11-15 09:53:00
2:47 AM,41.0,39.2,93,30.17,2.0,NW,5.8,-,N/A,,Mostly Cloudy,310,2012-11-15 10:47:00
2:53 AM,41.0,39.9,96,30.39,2.0,NW,6.9,-,N/A,,Mostly Cloudy,320,2012-11-15 10:53:00
3:20 AM,41.0,39.2,93,30.17,1.2,NW,5.8,-,N/A,,Mostly Cloudy,320,2012-11-15 11:20:00
3:22 AM,41.0,39.2,93,30.17,0.8,NW,6.9,-,N/A,,Overcast,310,2012-11-15 11:22:00
3:29 AM,41.0,41.0,100,30.17,0.8,NW,5.8,-,N/A,,Overcast,310,2012-11-15 11:29:00
3:53 AM,41.0,41.0,100,30.39,0.2,NW,6.9,-,N/A,Fog,Fog,310,2012-11-15 11:53:00
3:58 AM,41.0,41.0,100,30.14,0.5,NW,5.8,-,N/A,Fog,Fog,310,2012-11-15 11:58:00
4:15 AM,41.0,41.0,100,30.14,1.0,Calm,Calm,-,N/A,,Overcast,0,2012-11-15 12:15:00
4:53 AM,41.0,41.0,100,30.35,1.0,WNW,6.9,-,N/A,,Overcast,300,2012-11-15 12:53:00
5:18 AM,41.0,41.0,100,30.12,0.2,WNW,4.6,-,N/A,Fog,Fog,300,2012-11-15 13:18:00
5:33 AM,41.0,41.0,100,30.12,0.2,NW,6.9,-,N/A,Fog,Fog,310,2012-11-15 13:33:00
5:53 AM,39.9,39.0,97,30.34,0.2,NW,6.9,-,N/A,Fog,Fog,310,2012-11-15 13:53:00
6:02 AM,39.2,39.2,100,30.11,0.2,WNW,6.9,-,N/A,Fog,Fog,300,2012-11-15 14:02:00
6:53 AM,39.9,39.9,100,30.32,0.2,NW,5.8,-,N/A,Fog,Fog,320,2012-11-15 14:53:00
7:11 AM,39.2,39.2,100,30.10,0.2,NW,5.8,-,N/A,Fog,Fog,310,2012-11-15 15:11:00
7:21 AM,39.2,39.2,100,30.09,0.2,NW,8.1,-,N/A,Fog,Fog,310,2012-11-15 15:21:00
7:53 AM,39.2,39.2,100,30.31,0.5,WNW,5.8,-,N/A,Fog,Fog,300,2012-11-15 15:53:00
8:13 AM,41.0,41.0,100,30.09,0.5,WNW,5.8,-,N/A,Fog,Fog,300,2012-11-15 16:13:00
8:27 AM,41.0,41.0,100,30.09,0.2,WNW,8.1,-,N/A,Fog,Fog,300,2012-11-15 16:27:00
8:53 AM,42.1,41.0,96,30.09,0.2,WNW,8.1,-,N/A,,Scattered Clouds,300,2012-11-15 16:53:00
8:57 AM,42.8,41.0,93,30.09,2.0,NW,6.9,-,N/A,,Scattered Clouds,310,2012-11-15 16:57:00
8:58 AM,42.8,42.8,100,30.09,7.0,NW,6.9,-,N/A,Fog,Patches of Fog,310,2012-11-15 16:58:00
9:53 AM,45.0,42.1,90,30.08,10.0,NW,5.8,-,N/A,,Partly Cloudy,310,2012-11-15 17:53:00
10:53 AM,51.1,41.0,68,30.06,10.0,Variable,4.6,-,N/A,,Partly Cloudy,0,2012-11-15 18:53:00
11:28 AM,53.6,39.2,58,30.04,10.0,East,13.8,-,N/A,,Partly Cloudy,100,2012-11-15 19:28:00
11:53 AM,53.1,39.0,59,30.03,10.0,East,11.5,-,N/A,,Scattered Clouds,100,2012-11-15 19:53:00
12:53 PM,54.0,39.0,57,30.01,10.0,East,16.1,-,N/A,,Scattered Clouds,100,2012-11-15 20:53:00
1:53 PM,53.1,39.0,59,30.00,10.0,East,12.7,-,N/A,,Scattered Clouds,100,2012-11-15 21:53:00
2:53 PM,52.0,39.0,61,29.99,10.0,ESE,12.7,-,N/A,,Scattered Clouds,120,2012-11-15 22:53:00
3:53 PM,50.0,39.0,66,29.99,10.0,ESE,11.5,-,N/A,,Partly Cloudy,120,2012-11-15 23:53:00
4:53 PM,46.0,37.9,73,29.98,10.0,ESE,10.4,-,N/A,,Scattered Clouds,120,2012-11-16 00:53:00
5:53 PM,46.0,37.0,71,29.97,10.0,ESE,12.7,-,N/A,,Scattered Clouds,120,2012-11-16 01:53:00
6:53 PM,45.0,37.0,74,29.98,10.0,ESE,9.2,-,N/A,,Scattered Clouds,120,2012-11-16 02:53:00
7:53 PM,45.0,37.0,74,29.98,10.0,ESE,11.5,-,N/A,,Scattered Clouds,120,2012-11-16 03:53:00
8:53 PM,45.0,37.9,76,29.97,10.0,ESE,10.4,-,N/A,,Scattered Clouds,110,2012-11-16 04:53:00
9:53 PM,44.1,37.0,76,29.97,10.0,SE,6.9,-,N/A,,Scattered Clouds,130,2012-11-16 05:53:00
10:53 PM,43.0,37.0,80,29.96,10.0,SE,6.9,-,N/A,,Mostly Cloudy,130,2012-11-16 06:53:00
11:53 PM,45.0,37.9,76,29.96,10.0,ESE,9.2,-,N/A,,Mostly Cloudy,120,2012-11-16 07:53:00